Location: Carbonear
(47.7333°N, 53.2500°W)
Time: 13:51:04
(UTC+00:00)

XW-2D - Pass Details

Date: 07 December 2022
Orbit: 488 x 502 km, 97.5° (Epoch: 06 February)

Event Time Altitude Azimuth Distance (km) Brightness Sun altitude
Rises 19:10:28 0° 105° (ESE) 2,577 ? 3.3°
Reaches altitude 10° 20:44:02 10° 163° (SSE) 1,692 ? -10.1°
Maximum altitude 20:47:40 83° 77° (ENE) 504 ? -10.7°
Drops below altitude 10° 20:51:20 10° 349° (NNW) 1,696 ? -11.3°
Sets 20:53:24 0° 348° (NNW) 2,581 ? -11.6°
